Regional Weather Roundup
Issued by NWS

Home | Current Version | Previous Version | Text Only | Print | Product List | Glossary Off
Versions: 1 2 3 4 5 6 7 8 9 10 11 12 13 14 15 16 17 18 19 20 21 22 23 24 25 26 27 28 29 30 31 32 33 34 35 36 37 38 39 40 41 42 43 44 45 46 47 48 49 50

350
ASUS45 KABQ 091901
RWRNM
NEW MEXICO REGIONAL WEATHER ROUNDUP
NATIONAL WEATHER SERVICE ALBUQUERQUE NM
1200 PM MST FRI DEC 09 2016

NOTE: "FAIR" MEANS FEW OR NO CLOUDS BELOW 12,000 FEET AGL WITH NO
       SIGNIFICANT WEATHER OR OBSTRUCTIONS TO VISION.

      THIS PRODUCT IS RELEASED AS TWO VERSIONS.  ONE VERSION NEAR
      THE TOP OF THE HOUR CONTAINING PRELIMINARY DATA FROM ALBUQUERQUE
      AND OTHER STATIONS.  A FINAL VERSION WITH ADDITIONAL DATA IS
      ISSUED ABOUT 10 MINUTES AFTER THE HOUR.

NMZ501-503-504-510>518-092000-
NORTHWEST PLATEAU/NORTHCENTRAL MOUNTAINS

CITY           SKY/WX    TMP DP  RH WIND       PRES   REMARKS
FARMINGTON     FAIR      41  20  43 CALM      30.31F
LOS ALAMOS     FAIR      37  20  51 E6        30.31F WCI  32
SANTA FE       FAIR      40  24  53 W8        30.29F WCI  34
TAOS           FAIR      37  19  48 SW12      30.29F WCI  30
ANGEL FIRE     FAIR      38  21  48 S6        30.26F WCI  34

$$
NMZ402-403-502-505>509-092000-
WESTCENTRAL MOUNTAINS/SOUTHWEST MOUNTAINS

CITY           SKY/WX    TMP DP  RH WIND       PRES   REMARKS
GALLUP         FAIR      47  29  49 SW8       30.33F
GRANTS         FAIR      46  27  47 NW8       30.32F

$$
NMZ407-409-411-412-092000-
SOUTHERN DESERTS

CITY           SKY/WX    TMP DP  RH WIND       PRES   REMARKS
DEMING         FAIR      42  29  59 E5        30.38F
LAS CRUCES     FAIR      42  30  61 SE6       30.38F
HOLLOMAN AFB   FAIR      38  27  64 CALM      30.43F
T OR C         FAIR      41  27  57 S8        30.35F

$$
NMZ519>523-092000-
CENTRAL VALLEYS/CENTRAL HIGHLANDS

CITY           SKY/WX    TMP DP  RH WIND       PRES   REMARKS
ALBUQUERQUE    PTSUNNY   38  26  62 SW8       30.34F WCI  32
MORIARTY ARPT  FAIR      42  23  45 SW5       30.29F
CLINES CORNERS FAIR      41  24  51 W17       30.28S
BELEN          FAIR      39  26  59 S8        30.34F WCI  34
SOCORRO        FAIR      42  27  56 SE10      30.35F

$$
NMZ524>526-539-540-092000-
SOUTHCENTRAL MOUNTAINS

CITY           SKY/WX    TMP DP  RH WIND       PRES   REMARKS
RUIDOSO        FAIR      54  25  32 NE6       30.32F

$$
NMZ527>531-092000-
NORTHEAST HIGHLANDS/NORTHEAST PLAINS

CITY           SKY/WX    TMP DP  RH WIND       PRES   REMARKS
LAS VEGAS      FAIR      51  23  33 S6        30.20F
RATON          FAIR      46  21  37 E5        30.15F
CLAYTON        FAIR      59  28  30 S9        30.10F

$$
NMZ532>537-092000-
EASTCENTRAL PLAINS

CITY           SKY/WX    TMP DP  RH WIND       PRES   REMARKS
TUCUMCARI      FAIR      50  29  44 SW16      30.17F
CANNON AFB     FAIR      39  31  72 SW18      30.24F WCI  29
CLOVIS AIRPORT FAIR      37  27  65 SW17      30.26F WCI  28

$$
NMZ028-029-538-092000-
SOUTHEAST PLAINS

CITY           SKY/WX    TMP DP  RH WIND       PRES   REMARKS
ROSWELL        CLOUDY    31  27  85 S8        30.35F WCI  23
ARTESIA        CLOUDY    32  32 100 E7        30.37F WCI  26
CARLSBAD       NOT AVBL


$$




USA.gov is the U.S. government's official web portal to all federal, state and local government web resources and services.